Location: Kott?ru
(16.6209°N, 80.6208°E)
Time: 16:32:58
(UTC+00:00)

Cosmos 1378 Rocket - Pass Details

Date: 18 September 2020
Orbit: 601 x 628 km, 82.5° (Epoch: 21 October)

Event Time Altitude Azimuth Distance (km) Brightness Sun altitude
Rises 13:14:18 0° 356° (N) 2,842 7.1 -9.8°
Reaches altitude 10° 13:16:30 10° 357° (N) 1,937 6.2 -10.3°
Maximum altitude 13:20:47 84° 85° (E) 606 3.4 -11.3°
Drops below altitude 10° 13:25:04 10° 174° (S) 1,937 6.0 -12.4°
Sets 13:27:16 0° 175° (S) 2,841 6.8 -12.9°
